Location: ?????????
(44.2517°N, 135.2292°E)
Time: 02:56:20
(UTC+00:00)

Cosmos 1934 Rocket - Pass Details

Date: 19 May 2025
Orbit: 938 x 997 km, 83.0° (Epoch: 15 June)

Event Time Altitude Azimuth Distance (km) Brightness Sun altitude
Rises 14:27:37 0° 347° (NNW) 3,671 8.4 -25.5°
Reaches altitude 10° 14:30:10 10° 343° (NNW) 2,728 7.3 -25.6°
Maximum altitude 14:36:12 52° 269° (W) 1,207 4.4 -25.7°
Enters shadow 14:37:32 44° 230° (SW) 1,328 4.4 -25.7°
